TIME,DELAY(SENSOR),PRES,T(CTD),SAL,OXYGEN,RAWTEMP,T(OPTODE),TCPHASE,FLUOR,BETA(BETA700),BETA(BETA412),BETA(BETA440),CDOM,C(CSC),ED(ED411.90),ED(ED443.80),ED(ED489.40),ED(ED554.70),LU(LU412.20),LU(LU443.80),LU(LU489.40),LU(LU555.00),COMP,TILTX,TILTX(TILTY),CHECK
1348067730,5806,497.0400085449219000,17.5200004577636720,36.4676017761230500,230.8643951416015600,170.9748992919922000,17.5235900878906250,31.1475791931152340,50,102,97,79,63,13267,2146955648,2147513600,2147266660,2147466605,2147090422,2146956982,2147657956,2147116882,740,-1,8,4695
1348067840,5808,486.1199951171875000,17.5865001678466800,36.4799003601074200,231.4293975830078000,168.9644012451172000,17.5842609405517580,31.0924205780029300,50,100,96,79,63,13266,2146953554,2147513426,2147265371,2147464832,2147085942,2146956598,2147654518,2147121033,542,-1,8,10012
1348067952,5805,475.1700134277344000,17.6807994842529300,36.4972991943359400,232.7480010986328000,165.8616943359375000,17.6778907775878900,30.9858207702636720,50,101,97,79,63,13267,2146954934,2147512530,2147266971,2147459803,2147086464,2146956132,2147658258,2147117933,3394,-1,8,30379
1348068062,5805,464.5199890136719000,17.7719001770019530,36.5138015747070300,233.5827941894531200,162.7597045898437500,17.7715206146240230,30.9032001495361330,50,101,98,78,64,13268,2146956946,2147509668,2147264868,2147460022,2147089142,2146956589,2147651849,2147119533,3439,-1,8,50526
1348068183,5803,453.0000000000000000,17.8421993255615230,36.5276985168457000,234.8381042480468800,160.5821990966797000,17.8372592926025400,30.8130798339843750,50,102,96,79,63,13264,2146955684,2147511771,2147264539,2147461604,2147086848,2146961874,2147650377,2147116754,3406,-1,8,20012
1348068295,5805,442.4700012207031000,17.8899993896484380,36.5359001159668000,235.6658020019531200,159.0140075683593800,17.8846092224121100,30.7522106170654300,50,103,97,80,63,13267,2146956068,2147513590,2147264530,2147460617,2147087552,2146955062,2147652461,2147116205,3169,-1,9,22076
1348068416,5806,431.0899963378906000,17.9461994171142580,36.5446014404296900,236.1372985839843800,157.0319061279297000,17.9444503784179700,30.7031497955322270,50,101,97,79,63,13266,2146954550,2147516726,2147265773,2147460068,2147087314,2146956397,2147651410,2147119734,3311,-1,8,18023
1348068540,5804,419.6099853515625000,17.9764995574951170,36.5488014221191400,236.0980072021484400,156.1488952636718800,17.9711208343505860,30.6931800842285160,50,101,97,79,63,13267,2146955318,2147510125,2147267172,2147459428,2147089755,2146958921,2147655177,2147117942,2615,-1,8,37421
1348068661,5803,408.5700073242187500,18.0233993530273440,36.5556983947753900,235.2557067871093800,154.4362945556640600,18.0228404998779300,30.7108192443847660,50,101,96,79,63,13266,2146953673,2147516873,2147265243,2147461211,2147083483,2146957504,2147653147,2147118802,2804,-1,8,442
1348068782,5806,397.6600036621094000,18.0631008148193360,36.5570983886718750,233.8188018798828000,153.2277984619140600,18.0593395233154300,30.7639503479003900,50,102,96,78,62,13265,2146954084,2147515172,2147262125,2147458715,2147089746,2146960850,2147654208,2147127296,2827,-1,8,1398
1348068906,5805,386.6400146484375000,18.1245002746582030,36.5689010620117200,234.8636932373047000,151.2451019287109400,18.1192207336425780,30.6868591308593750,50,102,96,80,62,13266,2146956498,2147513051,2147265828,2147459300,2147089773,2146962441,2147650322,2147122733,2778,-1,8,26473
1348069038,5808,375.0599975585937500,18.1765003204345700,36.5755004882812500,234.8009948730468800,149.4602050781250000,18.1731491088867200,30.6662101745605470,51,101,97,79,64,13262,2146956032,2147512137,2147267072,2147456539,2147090048,2146957659,2147657088,2147118208,2773,-1,9,16231
1348069239,5807,364.1799926757812500,18.2171993255615230,36.5797996520996100,234.3780975341797000,148.1705932617187500,18.2121105194091800,30.6692905426025400,51,103,96,79,63,13283,2146956964,2147515419,2147267172,2147455597,2147088429,2146958226,2147653970,2147118811,2088,-2,8,10835
1348069404,5805,354.7500000000000000,18.2609996795654300,36.5840988159179700,233.6546020507812500,146.7124938964843800,18.2561702728271500,30.6848793029785160,50,102,97,81,63,13286,2146956406,2147512027,2147267090,2147459456,2147084873,2146960713,2147655277,2147118308,3442,-2,8,11533
1348069547,5805,341.5400085449219000,18.3306007385253900,36.5905990600585940,232.6127929687500000,144.3677062988281200,18.3270206451416000,30.7039203643798830,50,103,96,78,64,13283,2146958838,2147514505,2147262710,2147456758,2147087835,2146966107,2147661037,2147121097,3155,-2,8,13712
1348069646,5805,330.6400146484375000,18.3864994049072270,36.5946998596191400,231.9815063476562500,142.5852966308593800,18.3808898925781250,30.7110004425048830,51,102,97,79,64,13283,2146955264,2147510052,2147265773,2147454500,2147091666,2146967817,2147661275,2147121782,3178,-2,8,43874
1348069745,5805,319.7999877929687500,18.4794006347656250,36.6002006530761700,230.2100982666015600,139.4674987792968800,18.4751396179199220,30.7563209533691400,51,101,97,79,63,13281,2146957888,2147514880,2147265389,2147457974,2147089344,2146962404,2147656768,2147120841,2922,-2,8,6982
1348069862,5805,308.4400024414062500,18.5834999084472660,36.6091995239257800,228.5502929687500000,136.0225067138672000,18.5793094635009770,30.7921295166015620,50,103,97,79,64,13286,2146955474,2147513874,2147264429,2147457609,2147088987,2146960320,2147656749,2147124452,2793,-2,8,8939
1348069994,5803,297.4800109863281000,18.6615009307861330,36.6134986877441400,227.4458007812500000,133.4797058105468800,18.6562099456787100,30.8132705688476560,50,102,97,80,64,13284,2146955894,2147512859,2147266395,2147456768,2147092242,2146962258,2147666285,2147121398,3102,-2,8,57826
1348070129,5802,286.5799865722656000,18.7854003906250000,36.6156997680664060,226.4333953857422000,129.2976074218750000,18.7827301025390620,30.8081798553466800,51,101,97,79,65,13283,2146956004,2147514779,2147264292,2147454153,2147089536,2146967332,2147672466,2147129984,3519,-2,8,7286
1348070272,5806,275.6199951171875000,18.9092998504638670,36.6197013854980500,226.6575012207031200,125.3304977416992200,18.9027805328369140,30.7439708709716800,50,102,96,80,64,13283,2146953974,2147515062,2147265069,2147454253,2147088393,2146972114,2147677092,2147127460,3326,-2,8,11710
1348070437,5806,262.7500000000000000,19.0342006683349600,36.6017990112304700,231.1860961914062500,121.1464004516601600,19.0294399261474600,30.4651603698730470,50,103,96,79,64,13286,2146955556,2147513691,2147263442,2147454948,2147088905,2146977883,2147693449,2147126336,3195,-2,8,21497
1348070566,5804,250.6799926757812500,19.1126003265380860,36.5872993469238300,238.5162963867187500,118.5529022216796900,19.1079807281494140,30.0807800292968750,50,101,96,79,63,13285,2146958473,2147515510,2147266505,2147449810,2147089152,2146982363,2147708105,2147128201,3097,-2,8,59873
1348070676,5808,240.3000030517578000,19.1816005706787100,36.5872993469238300,241.5243988037109400,116.2434005737304700,19.1779308319091800,29.9105796813964840,50,100,96,79,63,13286,2146955456,2147515565,2147265874,2147452388,2147089828,2147003638,2147723794,2147132096,2725,-2,8,57670
1348070799,5804,229.0299987792968800,19.2292003631591800,36.5820007324218750,244.1154022216797000,114.7082977294921900,19.2244396209716800,29.7719306945800780,50,102,97,78,61,13286,2146953289,2147513956,2147267556,2147452589,2147089371,2147016237,2147759460,2147132672,2559,-2,8,65218
1348070920,5806,218.2100067138672000,19.2968997955322270,36.5858993530273440,245.3735961914062500,112.4010009765625000,19.2943496704101560,29.6846904754638670,50,100,97,79,62,13287,2146956745,2147513298,2147269056,2147454555,2147090624,2147040923,2147797952,2147137380,2550,-2,8,271
1348071044,5803,207.4199981689453000,19.3883991241455080,36.5900993347168000,245.2212982177734400,109.4087982177734400,19.3850402832031250,29.6528491973876950,51,102,97,80,62,13280,2146958217,2147515757,2147272694,2147451053,2147088192,2147065307,2147846317,2147135753,2606,-2,8,16833
1348071165,5803,196.9499969482422000,19.4050006866455080,36.5834007263183600,246.9362030029297000,108.6384963989257800,19.4083900451660160,29.5656509399414060,51,101,95,79,62,13282,2146954806,2147512841,2147272603,2147452598,2147093266,2147104109,2147916361,2147141851,3016,-2,8,31665
1348071220,5806,192.2500000000000000,19.4619007110595700,36.5917015075683600,246.3208007812500000,107.0046005249023400,19.4579200744628900,29.5719890594482420,53,104,97,80,62,13279,2146957632,2147519094,2147274907,2147452434,2147092260,2147131474,2147956754,2147143067,3255,-2,9,2260
1348071275,5806,187.4900054931640600,19.4773006439209000,36.5853004455566400,247.0803985595703000,106.4620971679687500,19.4743690490722660,29.5310001373291000,55,105,97,80,61,13276,2146953170,2147520914,2147277805,2147453613,2147104027,2147153088,2147997366,2147144429,20,-2,8,2558
1348071330,5807,182.7899932861328000,19.4978008270263670,36.5867004394531250,247.4622039794922000,105.7921981811523400,19.4946804046630860,29.5051708221435550,54,104,97,80,62,13278,2146953892,2147519387,2147282880,2147448320,2147104539,2147183222,2148048548,2147148544,153,-2,8,42814
1348071405,5806,176.5800018310547000,19.5349998474121100,36.5900001525878900,247.6571960449218800,104.3517990112304700,19.5383701324462900,29.4780006408691400,55,102,97,79,62,13278,2146956196,2147520402,2147283346,2147450550,2147114066,2147227328,2148121856,2147155794,205,-2,8,4346
1348071460,5806,172.3399963378906200,19.5589008331298830,36.5912017822265600,247.9743957519531200,103.7808990478515600,19.5556793212890620,29.4562397003173830,56,105,98,79,62,13276,2146955629,2147524041,2147286500,2147454134,2147119378,2147264512,2148186596,2147157942,265,-2,8,54175
1348071515,5805,168.1399993896484400,19.5921993255615230,36.5927009582519500,248.7590942382812500,102.6858978271484400,19.5888900756835940,29.4075908660888670,56,103,99,80,62,13274,2146954148,2147524150,2147286564,2147454198,2147119789,2147296777,2148240576,2147158198,3490,-2,9,11039
1348071570,5804,163.9799957275390600,19.6637992858886720,36.6003990173339840,248.5594940185547000,100.3022994995117200,19.6611995697021500,29.3855895996093750,57,107,97,80,63,13274,2146955108,2147519204,2147289170,2147454052,2147121517,2147292470,2148229915,2147160237,3335,-2,9,19771
1348071625,5805,159.8999938964843800,19.7761993408203120,36.6142005920410160,248.1390991210937500,96.7317962646484400,19.7695598602294920,29.3583297729492200,57,103,98,80,62,13273,2146956864,2147526180,2147299437,2147453741,2147146770,2147418002,2148427254,2147172352,3537,-2,8,62568
1348071680,5808,155.8699951171875000,19.8299007415771500,36.6142005920410160,248.1674041748047000,95.0427932739257800,19.8208293914794920,29.3353996276855470,59,105,98,80,62,13270,2146960274,2147531949,2147303597,2147446774,2147159643,2147478509,2148523227,2147180452,325,-2,8,46555
1348071757,5805,150.6499938964843800,19.8801002502441400,36.5994987487793000,253.4822998046875000,93.0051193237304700,19.8826904296875000,29.0760803222656250,66,110,96,80,63,13258,2146958198,2147532059,2147305426,2147451748,2147186358,2147557888,2148638354,2147189906,713,-2,8,55877
1348071812,5804,147.3800048828125000,19.9503002166748050,36.6041984558105500,254.8480072021484400,91.0604934692382800,19.9417495727539060,28.9924201965332030,69,114,99,80,63,13256,2146958573,2147536182,2147307611,2147451099,2147203547,2147640182,2148764068,2147195949,1095,-2,9,34015
1348071889,5806,143.0099945068359400,20.0380992889404300,36.6148986816406250,255.0635986328125000,88.1793975830078100,20.0292701721191400,28.9463691711425780,71,112,98,79,62,13256,2146961398,2147543433,2147318189,2147452288,2147233755,2147761563,2148945618,2147208155,1076,-2,8,64927
1348071955,5806,139.3899993896484400,20.1173000335693360,36.6258010864257800,253.8282012939453000,85.3311462402343800,20.1158199310302730,28.9633293151855470,72,111,99,80,63,13255,2146962340,2147547766,2147327085,2147450313,2147274797,2147894802,2149127625,2147219483,1247,-2,9,2676
1348072032,5808,135.3600006103515600,20.1914997100830080,36.6245994567871100,252.4776000976562500,83.0934371948242200,20.1838397979736330,28.9931697845459000,78,112,98,80,64,13254,2146964534,2147557083,2147336146,2147451072,2147326244,2148081865,2149381522,2147241920,1755,-2,8,36832
1348072111,5807,131.4600067138672000,20.2532005310058600,36.6291007995605500,253.8430023193359400,80.7554321289062500,20.2549190521240230,28.9045696258544920,82,112,98,80,63,13251,2146970102,2147560192,2147350290,2147451154,2147407817,2148317229,2149708873,2147265152,1879,-2,9,38854
1348072199,5809,127.5100021362304700,20.4596996307373050,36.6535987854003900,251.1929931640625000,74.5060272216796900,20.4450302124023440,28.9398097991943360,87,116,99,82,62,13242,2146968374,2147559003,2147344402,2147447881,2147419236,2148266925,2149587154,2147260845,1711,-2,9,17237
1348072287,5808,123.7600021362304700,20.5499992370605470,36.6603012084960940,248.1634979248047000,71.6496124267578100,20.5319805145263670,29.0363197326660160,92,114,100,81,62,13236,2146970614,2147560731,2147343030,2147450084,2147461467,2148292041,2149566875,2147258413,1732,-2,9,24109
1348072389,5804,119.4599990844726600,20.5958003997802730,36.6445999145507800,248.8630981445312500,69.6859130859375000,20.5917701721191400,28.9806804656982420,100,119,100,81,64,13203,2146976073,2147575716,2147373339,2147450441,2147616173,2148713334,2150142262,2147303625,1555,-2,9,6052
1348072477,5803,115.9400024414062500,20.7971992492675780,36.6607017517089840,249.3932037353515600,63.6082191467285160,20.7769203186035160,28.8801708221435550,113,121,100,82,62,13212,2146983689,2147596626,2147405184,2147451867,2147801554,2149196416,2150786752,2147352850,1456,-2,9,12610
1348072598,5804,112.0100021362304700,20.8749008178710940,36.6497001647949200,248.5782928466797000,60.7239799499511700,20.8648395538330080,28.8793792724609380,118,123,100,81,62,13208,2147001746,2147635821,2147475904,2147454957,2148185965,2150209590,2152215177,2147464832,1264,-2,9,3737
1348072729,5805,107.8700027465820300,21.0428009033203120,36.6559982299804700,248.5792999267578000,55.0325012207031250,21.0384407043457030,28.8074703216552730,129,123,98,81,62,13195,2147002029,2147619072,2147439835,2147454262,2148163008,2149842907,2151505718,2147429952,1585,-2,9,38507
1348072839,5805,103.8600006103515600,21.3054008483886720,36.6478996276855500,250.7667999267578000,46.8212509155273440,21.2891407012939450,28.6085090637207030,134,121,100,81,62,13173,2147013357,2147640521,2147460260,2147452754,2148417709,2150248850,2151920310,2147470400,1797,-2,9,41081
1348072971,5802,100.3600006103515600,21.5291004180908200,36.6507987976074200,250.7503051757812500,39.6393203735351560,21.5086708068847660,28.5190906524658200,130,121,100,81,64,13184,2147025856,2147659876,2147488146,2147450898,2148730048,2150810313,2152547245,2147531794,2408,-2,9,6504
1348073048,5805,98.5999984741211000,21.6035995483398440,36.6537017822265600,251.3601074218750000,36.6106109619140600,21.6013107299804700,28.4547996520996100,135,123,99,83,61,13168,2147061037,2147722806,2147589174,2147458998,2149487917,2152432347,2154601371,2147708059,2633,-2,9,51598
1348073103,5807,96.6500015258789000,21.6849002838134770,36.6533012390136700,252.3928985595703000,34.1792488098144500,21.6757202148437500,28.3801593780517580,131,124,101,82,63,13174,2147038052,2147670921,2147493430,2147452964,2148942793,2150920740,2152423990,2147540050,2721,-2,8,58705
1348073158,5804,94.7300033569336000,21.7929000854492200,36.6543998718261700,253.2369995117187500,30.3928699493408200,21.7916603088378900,28.2966995239257800,134,125,101,82,62,13167,2147067776,2147721078,2147563355,2147458304,2149627474,2152251940,2154019584,2147683666,2242,-2,9,16527
1348073213,5806,93.0199966430664000,21.8873996734619140,36.6609001159668000,255.4201965332031200,27.4227695465087900,21.8826503753662100,28.1671791076660160,116,122,100,82,61,13176,2147061988,2147697773,2147519680,2147452864,2149400466,2151557421,2152990683,2147603675,1949,-2,9,50815
1348073279,5804,91.1600036621093800,22.0517005920410160,36.6463012695312500,256.8414916992187500,22.6629390716552730,22.0285701751709000,28.0482902526855470,120,123,103,83,60,13170,2147100032,2147769005,2147609755,2147457325,2150307026,2153234304,2154868909,2147782445,1990,-2,9,17003
1348073357,5807,88.9899978637695300,22.2521991729736330,36.6608009338378900,258.2019042968750000,16.2865695953369140,22.2242202758789060,27.9126701354980470,102,124,100,84,61,13169,2147193380,2147931117,2147810642,2147465874,2152408128,2157129901,2159224502,2148185060,1914,-2,9,9754
1348073412,5804,86.8899993896484400,22.3553009033203120,36.6613998413085940,259.1575012207031000,12.5164098739624020,22.3400096893310550,27.8265991210937500,102,122,101,84,59,13168,2147173860,2147871844,2147715337,2147461696,2151806125,2155529334,2156907035,2147983936,2369,-2,9,29736
1348073467,5804,84.9100036621093800,22.4277992248535160,36.6632995605468750,259.5740966796875000,9.7713317871093750,22.4243602752685550,27.7756404876709000,98,120,99,83,59,13172,2147248393,2147985709,2147852041,2147466413,2153468918,2158266093,2159630829,2148234505,2273,-2,9,52860
1348073522,5801,83.1399993896484400,22.5380992889404300,36.6655006408691400,257.4343872070312500,6.2836289405822750,22.5315895080566400,27.8213100433349600,100,122,102,85,61,13163,2147332882,2148112941,2147988086,2147476681,2155449307,2161540315,2162937600,2148558747,2043,-2,9,20597
1348073588,5807,81.2399978637695300,22.6159000396728500,36.6514015197753900,256.8706054687500000,3.9323329925537110,22.6039295196533200,27.8158092498779300,97,126,103,84,59,13157,2147342345,2148117650,2147974601,2147473938,2155712466,2161439332,2162328566,2148538011,1845,-2,9,26293
1348073666,5804,78.2900009155273400,22.7071990966796880,36.6251983642578100,257.9851989746094000,-0.7378042936325073,22.7476806640625000,27.7120094299316400,96,124,102,83,60,13146,2147601024,2148484571,2148401892,2147501229,2161122441,2169719506,2170197686,2149330550,1412,-2,9,53784
1348073721,5807,75.7399978637695300,22.9186000823974600,36.6040000915527340,257.1278991699219000,-5.5668711662292480,22.8964595794677730,27.6882400512695300,91,124,100,83,59,13163,2147664594,2148539410,2148386852,2147497636,2162625362,2171339364,2171048740,2149435684,1792,-2,9,33484
1348073776,5804,73.7699966430664000,23.0032005310058600,36.5917015075683600,257.8775024414062500,-8.8442087173461910,22.9975109100341800,27.6168193817138670,88,124,103,85,58,13148,2147675456,2148515648,2148346770,2147492397,2162853558,2170752484,2169748288,2149346523,1409,-2,9,53643
1348073831,5808,72.1200027465820300,23.3339004516601560,36.5689010620117200,259.6759033203125000,-17.5684299468994140,23.2668209075927730,27.4362297058105470,85,126,103,83,59,13144,2147767533,2148632374,2148502116,2147509705,2164007533,2171931593,2170297417,2149395894,1035,-2,9,62418
1348073998,5804,70.4899978637695300,23.6805000305175780,36.5360984802246100,259.9855041503906000,-30.0844497680664060,23.6540107727050780,27.2710494995117200,79,126,104,85,60,13148,2147608475,2148359332,2148131081,2147487405,2160492352,2165679972,2163556315,2148730788,119,-2,9,60284
1348074152,5802,68.8700027465820300,23.9806995391845700,36.5306015014648440,260.1575012207031000,-39.7408103942871100,23.9534206390380860,27.1467990875244140,80,127,102,85,58,13146,2147830500,2148652306,2148442011,2147505042,2164988470,2171952137,2169130422,2149285522,1024,-2,9,2508
1348074417,5803,66.8600006103515600,24.4953002929687500,36.4594001770019500,259.3595886230469000,-56.7176895141601560,24.4813499450683600,26.9735393524169920,74,128,102,88,55,13146,2148529837,2149531977,2149413933,2147584502,2178859894,2190621659,2184564571,2150869266,755,-3,9,56629
1348074650,5808,64.4800033569336000,24.7059993743896500,36.4420013427734400,258.1206970214844000,-63.4413299560546900,24.6909999847412100,26.9425392150878900,72,132,102,85,57,13145,2148799798,2149808868,2149642779,2147603785,2184349686,2196722614,2188692178,2151309430,754,-2,9,12321
1348074782,5805,62.5400009155273440,25.0331993103027340,36.4333992004394500,255.8498992919922000,-71.0830307006836000,24.9296703338623050,26.9429798126220700,70,126,101,84,58,13141,2148983350,2149959570,2149617810,2147585261,2188668105,2201356589,2191469769,2151621138,170,-2,8,48322
1348074927,5805,60.2299995422363300,25.5039005279541000,36.4051017761230500,253.2420959472656200,-88.1924667358398400,25.4656600952148440,26.8436508178710940,70,134,105,85,58,13141,2149359469,2150382098,2150095341,2147643657,2195649984,2209221586,2197303625,2152283949,885,-2,9,64263
1348075114,5805,58.7999992370605500,25.8630008697509770,36.4245986938476560,257.5541076660156000,-100.9653015136718800,25.8673000335693360,26.5137901306152340,71,132,102,86,54,13138,2149526893,2150556342,2150213321,2147651117,2199441627,2213404169,2200278848,2152681508,979,-2,9,26229
1348075467,5805,56.7599983215332000,26.0067996978759770,36.3507003784179700,251.9019927978515600,-105.1612014770507800,25.9995307922363280,26.6945400238037100,67,132,103,86,56,13128,2149743606,2150673133,2149969298,2147589878,2204643044,2218877805,2203117677,2152878235,3101,-2,9,45478
1348075896,5804,53.8899993896484400,26.8194007873535160,36.3648986816406250,249.4633026123047000,-130.5867004394531200,26.8040008544921880,26.4898891448974600,69,135,104,86,55,13103,2150256448,2151182125,2150311323,2147603922,2216166473,2230958025,2211502701,2153931062,2037,-2,9,40598
1348075964,5803,52.8100013732910160,27.0965003967285160,36.3524017333984400,247.7519989013672000,-138.3455963134765600,27.0506305694580080,26.4679508209228500,68,129,105,86,57,13114,2150516644,2151419593,2150463853,2147610852,2221664210,2236703981,2215473216,2154470253,2149,-3,9,23302
1348076033,5806,50.0299987792968750,27.5382003784179700,36.4030990600585940,239.9649963378906200,-152.2422943115234400,27.4937496185302730,26.6319293975830080,65,121,104,86,58,13148,2151252452,2152047186,2151317677,2147828800,2235519716,2250061019,2223552219,2155519213,698,-1,9,9828
1348076342,5807,48.8800010681152340,27.5338001251220700,36.3981018066406250,235.4214935302734400,-153.6692047119140600,27.5393505096435550,26.8134803771972660,61,121,101,84,57,13151,2151382518,2152047533,2150900982,2147660041,2240675739,2254965458,2225972507,2155660790,3314,-2,9,646
1348076447,5805,46.7599983215332000,27.4528999328613280,36.2930984497070300,234.9519042968750000,-152.0747070312500000,27.4883899688720700,26.8536796569824220,61,120,101,84,55,13155,2151953078,2152540937,2151167222,2147670016,2252903725,2266673828,2232573028,2156395446,3092,-2,9,55467
1348076562,5808,44.7700004577636700,27.5076007843017580,36.2426986694335940,234.6793060302734400,-153.5650024414062500,27.5360202789306640,26.8477096557617200,60,122,100,87,58,13148,2152528850,2153083894,2151646619,2147750811,2265951734,2279755986,2240618496,2157606436,22,-1,9,1353
1348076631,5808,42.9399986267089840,27.5713996887207030,36.2282981872558600,234.9459075927734400,-155.3632965087890600,27.5935192108154300,26.8140697479248050,61,124,100,85,59,13140,2152950747,2153455798,2151915328,2147786697,2278319259,2292220598,2248782464,2158773184,73,-2,9,48037
1348076676,5808,41.8400001525878900,27.5904998779296880,36.2134017944335940,235.0897979736328000,-156.0536956787109400,27.6156005859375000,26.7992191314697270,61,125,99,83,56,13138,2153256228,2153708891,2152027017,2147783259,2285578962,2298917522,2252408082,2159389814,3437,-2,9,41442
1348076769,5802,39.7599983215332000,27.5981006622314450,36.1627006530761700,235.0039062500000000,-156.3215942382812500,27.6241703033447270,26.7998409271240230,61,121,100,85,54,13144,2153867593,2154324224,2152800338,2148037220,2300003547,2312781741,2261289636,2160619227,466,-2,9,47079
1348076873,5805,37.4199981689453100,27.5974998474121100,36.1278991699218750,234.7274932861328000,-156.0867004394531200,27.6166496276855470,26.8149509429931640,59,121,101,84,56,13148,2154612032,2154937709,2153058797,2147990198,2320267382,2332709174,2273668096,2162929325,223,-2,9,31817